Location: Newark
(34.6283°N, 36.0776°E)
Time: 02:10:41
(UTC+00:00)

S-56A Canister/Altair - Pass Details

Date: 16 October 2019
Orbit: 634 x 2498 km, 38.9° (Epoch: 13 November)

Event Time Altitude Azimuth Distance (km) Brightness Sun altitude
Rises 08:30:00 0° 289° (WNW) 5,504 11.6 44.9°
Reaches altitude 10° 08:33:45 10° 281° (W) 4,711 11.4 45.1°
Maximum altitude 08:45:34 36° 222° (SW) 3,450 11.7 45.7°
Drops below altitude 10° 08:58:23 10° 163° (SSE) 5,075 12.7 46.2°
Sets 09:02:41 0° 155° (SSE) 5,963 12.7 46.3°
